Content
SEND FEEDBACK

Daily
Averages
Monthly
Summary
United States of America

MERIZO, GUAM


Home > North America > United States > Guam
Elevation: 3 meters     Latitude: 13 14N     Longitude: 144 39E

WEATHER
 
SELECT A DAY
Number of Records: 356,296;   Date Range: 1/1/95 - 12/16/14
 
SHARE

PRINT THIS DATA

[ ← Previous Day ]
WEATHER ALMANAC - 25 MAY, 2013
[ Next Day → ]
[ °F ]   °C
Weather ElementAverageHighLow
Temperature27.8 °C30.3 °C (1:55 pm)26 °C (3:09 am)
Dewpoint23.6 °C24.3 °C (3:55 pm)22.9 °C (9:55 pm)
Humidity78.2 %89 % (5:27 am)68 % (1:55 pm)
Barometer1010.5 hPa1012.5 hPa (10:55 pm)1009.5 hPa (2:44 am)
Wind Speed14.8 km/h20.4 km/h (1:55 pm)
Wind Gust29.6 km/h (1:55 pm)
Weather ElementAverage
Visibility16.1 km
Wind DirectionESE (107.7 °)

Weather ElementTotal
Precipitation---
Cooling Degree Days9.8 (Base 18.3)
Growing Degree Days18.2 (Base 10)
Averaged from 35 records on 25 May, 2013
WEATHER CONDITIONS BREAKOUT
WIND DIRECTION BREAKOUT
WEATHER BY HOUR - 25 MAY, 2013
[ °F ]   °C
Local TimeTemperatureDewpointHumidityBarometerVisibilityWind DirectionWind SpeedGust SpeedPrecipitationEventsConditions
1:55 AM26.5 °C23.6 °C84 %1009.8 hPa16.1 kmESE (110°)13 km/hScattered Clouds
2:44 AM27 °C24 °C84 %1009.5 hPa16.1 kmEast (80°)9.3 km/hMostly Cloudy
2:48 AM27 °C24 °C84 %1009.8 hPa16.1 kmEast (80°)7.4 km/hRainLight Rain
2:55 AM26.7 °C23.6 °C83 %1009.5 hPa16.1 kmESE (120°)18.5 km/h0 mmRainLight Rain
2:59 AM27 °C23 °C79 %1009.5 hPa16.1 kmESE (110°)16.7 km/hMostly Cloudy
3:09 AM26 °C23 °C83 %1009.8 hPa16.1 kmEast (100°)13 km/hScattered Clouds
3:55 AM26.2 °C23 °C82 %1009.8 hPa16.1 kmESE (120°)13 km/h0 mmClear
4:55 AM26.1 °C23.4 °C85 %1009.8 hPa16.1 kmESE (120°)14.8 km/hPartly Cloudy
5:27 AM26 °C24 °C89 %1010.2 hPa16.1 kmESE (110°)13 km/hRainLight Rain
5:37 AM26 °C24 °C89 %1010.2 hPa16.1 kmESE (120°)13 km/hRainLight Rain
5:42 AM26 °C24 °C89 %1010.2 hPa16.1 kmESE (120°)11.1 km/hMostly Cloudy
5:55 AM26.1 °C23.5 °C85 %1010.2 hPa16.1 kmSE (130°)14.8 km/h0 mmMostly Cloudy
5:59 AM26 °C23 °C83 %1010.2 hPa16.1 kmESE (120°)11.1 km/hScattered Clouds
6:55 AM27.1 °C23.6 °C81 %1010.8 hPa16.1 kmESE (110°)13 km/hScattered Clouds
7:55 AM28.6 °C23.9 °C76 %1011.5 hPa16.1 kmEast (90°)14.8 km/hScattered Clouds
8:55 AM29.4 °C23.7 °C71 %1011.9 hPa16.1 kmESE (110°)14.8 km/hPartly Cloudy
9:55 AM29.8 °C23.7 °C70 %1011.9 hPa16.1 kmESE (120°)18.5 km/hPartly Cloudy
10:26 AM29 °C24 °C74 %1011.5 hPa16.1 kmESE (120°)14.8 km/hMostly Cloudy
10:31 AM30 °C24 °C70 %1011.5 hPa16.1 kmESE (120°)16.7 km/hMostly Cloudy
10:55 AM30 °C24.1 °C70 %1011.5 hPa16.1 kmESE (120°)18.5 km/hScattered Clouds
11:55 AM30.2 °C24 °C69 %1011.2 hPa16.1 kmESE (110°)16.7 km/hPartly Cloudy
12:55 PM30.2 °C23.9 °C69 %1010.8 hPa16.1 kmESE (110°)16.7 km/hPartly Cloudy
1:55 PM30.3 °C23.9 °C68 %1010.2 hPa16.1 kmESE (110°)20.4 km/h29.6 km/hClear
2:55 PM30.1 °C24.1 °C70 %1009.5 hPa16.1 kmESE (110°)20.4 km/hPartly Cloudy
3:55 PM29.9 °C24.3 °C72 %1009.5 hPa16.1 kmEast (100°)18.5 km/hClear
4:55 PM29.1 °C23.8 °C73 %1009.5 hPa16.1 kmEast (100°)16.7 km/hClear
5:55 PM28.4 °C23 °C72 %1010.2 hPa16.1 kmESE (120°)14.8 km/hPartly Cloudy
6:30 PM28 °C24 °C79 %1010.5 hPa16.1 kmESE (110°)14.8 km/hRainLight Rain
6:40 PM28 °C24 °C79 %1010.5 hPa16.1 kmEast (90°)16.7 km/hScattered Clouds
6:55 PM27.3 °C23.2 °C78 %1010.5 hPa16.1 kmEast (100°)14.8 km/h0 mmClear
7:55 PM27.1 °C23.2 °C79 %1011.2 hPa16.1 kmESE (110°)13 km/hPartly Cloudy
8:55 PM26.9 °C23.2 °C80 %1011.5 hPa16.1 kmEast (90°)13 km/hClear
9:55 PM27.2 °C22.9 °C77 %1012.2 hPa16.1 kmEast (100°)11.1 km/hPartly Cloudy
10:55 PM26.8 °C23.2 °C81 %1012.5 hPa16.1 kmEast (100°)13 km/hClear
11:55 PM26.8 °C23.3 °C81 %1012.2 hPa16.1 kmEast (80°)16.7 km/hPartly Cloudy
Hourly data recorded from PGUA, located 0 kilometers away from Merizo, Guam







STORIES FROM OUR PARTNERS